{"data":{"norad_id":65215,"epoch":"2026-05-24T18:02:46.689792Z","epoch_age_seconds":96456,"freshness":"FRESH","line1":"1 65215U 25176T   26144.75192928  .00010515  00000+0  32191-3 0  9990","line2":"2 65215  53.1583 161.0059 0001146  80.9457 279.1675 15.34399516 44745","mean_motion":15.34399516,"eccentricity":0.0001146,"inclination_deg":53.1583,"raan_deg":161.0059,"arg_perigee_deg":80.9457,"mean_anomaly_deg":279.1675,"bstar":0.00032191,"rev_number":4474,"period_min":93.847787684,"perigee_km":461.9207183011,"apogee_km":463.48863921387,"semimajor_km":6840.8416787575,"source":"CELESTRAK","updated_at":"2026-05-25T13:38:20.721242Z"}}